Wind_Speed
3 3 4 9 7 4 3 6 4 1 3 4 9 14 9 23 21 18 25 29 34 35 33 30 26 24 19 14 11 7 3 3 4 1 7 7 5 5 11 16 14 11 16 16
3 5 8 6 5 5 6 7 5 3 9 6 4 14 8 19 20 26 30 30 36 34 35 33 29 25 21 12 10 5 3 3 3 2 5 5 3 6 12 10 12 16 14 15
5 6 8 6 8 5 4 8 6 10 4 2 3 9 4 7 22 29 30 36 40 45 43 38 33 27 20 13 8 2 1 4 3 1 2 6 3 5 5 7 10 14 14 15
5 12 6 7 8 6 6 8 8 8 6 6 9 5 6 5 17 22 23 29 36 38 40 41 34 27 19 13 6 2 3 4 4 3 5 8 6 2 6 8 10 10 11 14
8 7 6 8 12 8 11 6 7 10 9 5 2 3 7 5 5 5 4 19 34 39 41 40 33 25 17 11 5 2 2 2 3 4 3 0 2 7 6 7 7 9 9 10
8 16 6 10 11 7 6 3 4 4 4 1 7 6 3 2 3 3 12 15 17 30 31 34 29 24 17 13 10 5 1 4 3 5 4 3 6 6 7 7 6 8 10 11
5 6 12 6 6 4 4 6 2 3 4 6 3 3 7 9 12 13 19 25 24 30 35 33 30 24 18 17 13 8 2 3 3 5 4 2 4 4 5 6 8 9 11 13
7 6 9 6 9 10 8 9 6 6 4 5 2 5 5 9 11 11 20 30 34 35 37 37 29 26 19 19 15 9 4 5 2 3 2 2 4 2 5 7 9 10 12 14
6 6 4 7 6 9 4 3 9 6 0 2 3 4 5 7 13 10 26 29 33 33 38 36 30 29 22 23 16 10 7 6 1 4 2 3 4 3 4 5 7 9 11 12
5 2 4 3 1 3 8 5 2 3 4 5 3 3 5 8 10 7 12 29 34 37 38 35 32 31 29 23 16 12 8 4 3 4 3 3 4 2 2 5 6 7 8 8
9 4 9 4 4 7 1 3 3 5 5 5 4 6 6 11 9 10 16 27 37 41 41 37 34 33 31 21 16 12 10 7 6 5 6 3 4 2 3 6 8 7 7 9
10 6 8 11 9 6 9 10 7 5 5 2 3 6 7 13 16 19 24 29 37 43 38 39 37 36 28 22 17 13 10 9 10 7 5 3 3 3 3 5 4 5 7 11
9 3 2 9 6 2 5 6 5 4 4 7 6 6 4 9 12 23 28 29 33 34 37 39 41 36 29 22 18 15 13 14 11 6 6 2 2 2 3 2 3 6 9 13
18 5 8 9 7 2 2 4 5 6 4 5 6 5 3 10 13 15 23 30 32 39 41 46 40 33 27 23 19 15 15 13 11 8 6 3 4 4 2 1 4 7 10 12
10 9 7 8 6 4 5 6 8 7 10 8 7 10 11 15 15 25 31 32 33 37 43 44 39 34 30 25 20 17 15 16 13 8 6 3 7 3 1 3 5 8 10 11
1 6 8 4 5 2 2 6 6 4 1 4 9 1 4 19 21 23 31 35 37 38 43 41 37 36 32 27 23 17 16 15 11 8 4 8 6 4 2 4 5 8 12 11
1 6 4 8 2 5 4 3 3 3 3 7 4 7 7 12 19 29 34 39 38 40 46 45 43 37 31 26 21 16 16 14 12 7 5 7 6 3 2 3 6 9 12 11
4 6 4 4 3 4 5 5 1 6 4 7 5 4 15 19 28 34 38 40 38 46 46 44 41 36 29 23 18 13 15 13 12 7 5 6 6 3 4 5 8 9 11 11
5 5 3 5 3 3 2 1 2 2 3 5 8 5 1 12 20 14 37 38 46 45 44 42 38 33 27 21 17 14 16 14 12 9 5 7 5 5 6 7 6 9 10 11
4 5 5 3 5 5 8 5 5 3 6 5 8 11 13 18 7 5 34 36 38 41 41 39 34 29 23 19 15 14 14 13 11 10 8 8 7 8 9 9 7 7 8 8
1 2 6 3 3 5 6 5 6 4 7 4 5 13 16 5 9 17 31 32 37 39 37 34 30 26 20 17 14 11 12 12 9 7 10 9 6 8 10 9 9 7 7 5
5 6 3 3 4 3 8 5 8 6 3 12 20 24 24 21 13 23 31 34 36 36 35 31 27 23 17 11 9 11 12 9 9 10 10 9 9 10 6 5 6 6 6 5
3 1 5 5 5 4 14 6 12 10 20 16 27 25 26 23 25 30 34 34 34 34 32 27 22 18 13 9 11 13 9 9 10 9 9 9 8 7 6 5 2 3 3 6
4 5 0 3 4 8 14 3 9 12 15 15 20 25 26 29 32 32 34 35 33 30 27 23 19 16 13 12 12 10 8 7 10 8 6 6 5 4 2 5 0 2 4 6
3 4 2 2 4 8 8 3 12 14 20 24 25 26 28 32 32 32 33 31 28 26 22 18 14 13 11 12 14 9 5 4 11 10 7 5 4 6 5 1 2 4 5 6
6 4 4 5 3 4 14 9 15 22 26 26 26 26 27 27 30 29 29 25 22 20 19 18 14 13 11 9 10 7 3 1 8 8 8 7 6 5 4 3 2 4 3 5
Wind_Direction
195 93 217 204 188 144 161 138 136 88 202 159 245 266 188 203 208 190 174 172 174 177 176 182 193 210 216 218 226 239 250 288 312 245 198 243 280 321 338 351 19 49 52 45
14 217 226 261 241 199 204 168 187 346 252 163 347 267 179 203 189 188 193 185 176 176 179 181 187 193 196 208 235 247 255 324 348 360 178 242 281 341 351 20 38 43 46 37
159 230 199 224 274 279 248 173 204 211 235 62 60 313 204 168 184 192 201 193 185 184 182 184 187 192 196 200 214 249 318 6 36 59 210 186 236 329 357 37 36 36 31 27
236 246 208 221 239 187 258 242 237 210 128 218 139 256 294 194 187 189 191 193 183 177 180 185 186 187 191 202 210 203 18 359 49 90 207 243 264 354 46 37 29 32 22 15
227 205 188 219 234 217 243 276 265 251 180 125 194 112 284 93 183 183 354 199 185 183 182 184 187 190 189 196 190 204 10 33 53 78 37 246 93 71 52 25 20 27 19 19
219 257 174 212 234 235 242 251 34 55 159 244 198 146 269 213 138 95 92 144 185 179 180 190 188 194 187 193 197 194 285 28 24 32 32 86 105 92 69 47 30 26 34 28
288 246 257 229 242 229 144 76 344 327 345 233 181 78 216 202 197 198 179 149 182 191 192 193 189 190 194 196 199 194 218 355 357 7 359 81 121 94 57 45 37 31 27 27
199 283 186 207 188 187 195 156 161 202 207 264 51 227 265 217 211 192 173 181 184 200 192 193 190 202 198 201 194 194 231 318 339 347 348 113 146 119 62 50 31 26 21 21
180 254 223 187 200 142 246 193 180 138 274 79 200 304 280 238 270 177 176 168 180 177 185 188 193 203 197 192 192 210 250 289 281 312 295 181 162 112 81 44 31 21 18 19
236 271 210 220 145 283 170 164 78 12 183 237 252 199 233 207 240 242 179 179 183 174 176 187 189 196 195 189 193 207 243 270 266 286 283 182 166 138 74 30 15 27 26 24
193 113 275 114 185 214 281 237 129 128 140 189 195 253 215 206 187 186 170 165 165 168 179 183 188 188 183 186 194 213 223 245 244 265 302 233 188 180 90 37 24 35 33 15
192 170 226 235 249 229 212 210 163 140 252 169 170 262 187 193 181 173 168 169 169 180 182 187 185 180 178 188 195 212 225 237 228 241 293 213 201 183 101 39 49 15 13 11
170 215 308 335 342 1 201 194 150 122 99 190 150 258 185 199 155 175 170 175 173 175 181 186 183 183 185 194 196 210 214 210 222 244 299 236 194 161 93 80 33 14 13 7
151 132 168 212 210 152 340 256 181 145 136 180 209 193 159 188 193 179 181 178 172 175 182 179 179 184 191 196 196 200 205 220 228 247 284 208 169 145 119 12 354 356 2 355
135 183 178 217 207 232 282 260 255 188 230 178 226 184 191 186 185 182 181 170 167 169 174 180 183 187 190 188 191 206 211 207 224 243 279 188 152 148 263 324 334 340 346 343
334 207 172 238 162 125 324 10 347 326 38 112 136 168 189 170 167 166 168 169 172 175 180 187 190 189 187 189 198 207 205 211 223 244 246 169 157 199 287 358 333 343 336 340
18 123 113 229 133 52 2 337 282 257 349 129 129 221 137 157 167 166 171 173 174 178 188 193 193 192 192 196 205 208 209 211 216 230 204 192 180 214 274 317 322 336 341 340
182 114 114 174 70 197 232 284 126 89 62 85 75 153 177 172 178 174 173 173 179 185 192 194 193 193 194 194 197 206 203 208 210 212 186 197 208 251 303 292 306 329 347 345
187 122 102 127 137 263 348 265 148 172 206 137 151 185 200 143 142 175 185 198 195 197 196 195 193 190 186 190 192 200 198 200 206 207 210 207 212 245 286 296 307 325 344 356
81 91 116 94 130 193 228 247 241 352 304 259 189 186 157 152 161 210 190 191 191 192 192 189 185 181 184 185 189 195 203 205 216 208 221 223 216 237 269 287 306 329 341 359
59 34 160 142 145 284 238 226 173 151 232 278 159 149 135 107 183 210 191 188 192 189 184 180 176 177 180 180 183 190 192 200 191 215 224 244 251 266 275 281 302 316 339 354
163 147 183 93 96 249 210 108 156 204 176 165 153 144 152 188 181 175 181 181 180 173 169 171 168 168 172 175 173 167 182 193 209 210 222 243 265 276 259 283 300 314 343 3
42 157 169 164 215 291 348 294 136 145 168 171 161 171 178 158 163 168 164 165 165 166 164 167 170 162 158 171 175 172 192 199 197 205 224 249 276 271 250 261 341 14 17 356
14 10 108 103 352 344 330 30 118 159 170 174 186 172 167 160 163 161 159 160 164 164 164 166 165 159 157 161 161 179 211 223 236 208 235 261 258 222 190 133 242 336 350 346
189 345 329 10 20 357 322 283 154 153 157 157 159 164 166 164 165 164 162 162 165 165 167 170 167 162 152 159 180 204 186 235 210 209 220 181 181 173 161 224 278 300 321 333
169 190 166 222 146 112 301 209 162 159 158 164 161 160 163 167 167 168 163 166 169 170 172 173 173 172 161 164 180 178 189 141 196 190 164 183 195 203 260 278 322 268 342 327
Height
1498 1507 1515 1506 1506 1508 1512 1518 1519 1510 1511 1517 1516 1518 1525 1527 1533 1538 1538 1540 1542 1545 1545 1546 1547 1550 1553 1557 1560 1558 1557 1554 1552 1551 1550 1547 1545 1544 1543 1541 1539 1536 1533 1530
1504 1511 1503 1501 1503 1507 1510 1517 1518 1518 1510 1517 1517 1515 1518 1517 1525 1532 1533 1536 1536 1541 1543 1544 1545 1548 1551 1555 1559 1558 1555 1553 1551 1549 1547 1546 1545 1544 1543 1542 1541 1537 1534 1531
1507 1500 1498 1500 1503 1506 1507 1517 1521 1517 1508 1517 1523 1524 1513 1511 1515 1520 1527 1529 1530 1530 1535 1540 1543 1546 1548 1550 1555 1558 1555 1551 1550 1548 1547 1547 1546 1544 1544 1544 1541 1538 1535 1533
1499 1493 1497 1499 1503 1501 1516 1496 1501 1508 1522 1537 1517 1550 1515 1508 1505 1512 1520 1526 1528 1529 1532 1535 1540 1542 1546 1551 1552 1553 1554 1551 1549 1549 1549 1548 1546 1544 1542 1540 1539 1537 1535 1534
1498 1491 1495 1500 1495 1493 1501 1492 1498 1499 1515 1518 1527 1541 1523 1509 1518 1519 1526 1528 1527 1530 1531 1531 1538 1542 1544 1549 1552 1552 1552 1551 1549 1547 1547 1546 1545 1542 1542 1542 1541 1538 1534 1531
1491 1484 1487 1488 1487 1487 1488 1493 1500 1506 1519 1535 1518 1529 1535 1524 1521 1523 1523 1522 1536 1535 1536 1540 1539 1541 1542 1547 1549 1550 1549 1549 1548 1547 1545 1544 1543 1543 1541 1540 1539 1537 1534 1530
1492 1489 1482 1483 1491 1484 1489 1510 1537 1538 1538 1539 1510 1522 1523 1512 1509 1503 1504 1511 1523 1530 1529 1537 1539 1543 1539 1544 1548 1548 1547 1547 1546 1546 1546 1543 1542 1542 1540 1539 1538 1537 1534 1531
1508 1508 1481 1474 1482 1489 1491 1501 1535 1545 1544 1530 1509 1523 1510 1500 1501 1505 1502 1496 1507 1511 1522 1530 1536 1541 1536 1542 1544 1546 1546 1545 1545 1546 1545 1543 1542 1542 1540 1539 1538 1536 1534 1531
1503 1495 1468 1468 1468 1473 1484 1497 1491 1515 1515 1531 1522 1514 1499 1498 1493 1498 1500 1501 1506 1509 1515 1526 1533 1536 1536 1539 1541 1544 1545 1544 1544 1545 1543 1542 1541 1541 1539 1538 1537 1536 1533 1531
1480 1493 1469 1467 1468 1468 1473 1475 1503 1517 1527 1535 1523 1522 1510 1500 1491 1487 1488 1491 1499 1502 1513 1522 1527 1532 1534 1536 1539 1541 1542 1541 1542 1542 1543 1541 1540 1540 1539 1538 1536 1535 1533 1530
1471 1483 1479 1468 1475 1478 1479 1484 1486 1496 1510 1525 1534 1520 1485 1485 1485 1488 1485 1489 1494 1503 1510 1516 1521 1528 1531 1533 1536 1539 1539 1538 1541 1542 1541 1540 1538 1538 1538 1537 1536 1534 1532 1529
1463 1481 1491 1480 1462 1461 1466 1471 1478 1505 1507 1512 1515 1509 1470 1472 1477 1484 1485 1489 1492 1499 1506 1512 1518 1522 1526 1530 1533 1535 1535 1537 1539 1541 1541 1539 1538 1537 1537 1536 1535 1534 1531 1529
1457 1480 1496 1489 1471 1459 1463 1461 1465 1477 1490 1507 1514 1503 1469 1471 1479 1482 1485 1491 1494 1498 1505 1511 1516 1520 1522 1527 1529 1531 1533 1536 1538 1539 1539 1540 1539 1538 1537 1536 1535 1532 1531 1528
1443 1469 1477 1494 1477 1461 1462 1458 1460 1471 1495 1490 1489 1478 1474 1473 1474 1479 1483 1488 1491 1494 1501 1508 1513 1516 1520 1523 1525 1527 1530 1534 1536 1537 1537 1537 1538 1537 1536 1535 1534 1532 1530 1528
1442 1466 1465 1462 1458 1454 1456 1459 1456 1468 1463 1475 1465 1468 1465 1464 1467 1468 1474 1486 1491 1496 1501 1505 1508 1512 1516 1520 1522 1525 1527 1531 1534 1535 1535 1535 1536 1535 1535 1534 1533 1532 1530 1527
1440 1459 1456 1456 1449 1451 1458 1456 1453 1448 1450 1456 1457 1458 1451 1457 1465 1470 1474 1481 1486 1492 1497 1501 1505 1509 1511 1515 1518 1521 1524 1527 1531 1532 1533 1534 1534 1534 1534 1533 1533 1531 1529 1527
1444 1454 1466 1471 1450 1455 1472 1460 1458 1453 1448 1454 1466 1455 1452 1459 1460 1465 1470 1476 1481 1486 1490 1494 1499 1504 1507 1512 1516 1518 1522 1525 1528 1530 1531 1533 1533 1534 1533 1532 1531 1530 1528 1525
1446 1452 1462 1473 1462 1485 1464 1452 1451 1456 1452 1449 1452 1453 1450 1450 1453 1461 1465 1472 1479 1481 1486 1491 1496 1501 1506 1510 1515 1518 1521 1523 1525 1528 1529 1530 1532 1532 1532 1532 1530 1529 1527 1524
1435 1448 1466 1477 1483 1469 1458 1451 1452 1454 1455 1446 1449 1453 1455 1456 1460 1468 1466 1466 1469 1474 1479 1484 1491 1499 1505 1509 1512 1515 1518 1521 1524 1525 1527 1528 1529 1530 1530 1530 1528 1527 1525 1522
1433 1434 1455 1473 1479 1486 1461 1448 1447 1448 1468 1443 1441 1443 1446 1459 1470 1464 1466 1469 1473 1475 1479 1484 1492 1500 1504 1508 1510 1513 1516 1519 1522 1524 1526 1527 1528 1529 1528 1527 1526 1525 1523 1521
1445 1449 1458 1473 1473 1466 1444 1444 1447 1469 1467 1439 1438 1442 1448 1456 1460 1459 1464 1470 1472 1475 1480 1487 1493 1499 1504 1506 1510 1512 1515 1517 1520 1523 1524 1526 1526 1527 1526 1526 1525 1523 1521 1520
1447 1455 1459 1464 1474 1470 1436 1441 1450 1444 1439 1440 1441 1442 1449 1455 1456 1460 1463 1466 1471 1475 1482 1488 1494 1500 1503 1506 1508 1511 1514 1517 1519 1521 1522 1524 1525 1525 1524 1523 1523 1522 1520 1519
1454 1453 1454 1456 1456 1442 1440 1438 1435 1437 1440 1442 1442 1443 1445 1450 1456 1461 1463 1468 1475 1479 1485 1491 1495 1499 1503 1505 1507 1510 1514 1516 1519 1520 1521 1522 1523 1522 1522 1521 1521 1521 1520 1519
1449 1450 1451 1448 1447 1443 1442 1440 1439 1439 1440 1440 1443 1444 1448 1451 1458 1464 1468 1472 1476 1482 1487 1492 1496 1499 1502 1505 1508 1511 1513 1515 1517 1518 1519 1520 1520 1520 1520 1520 1520 1520 1519 1518
1452 1451 1453 1449 1445 1442 1443 1443 1442 1443 1442 1444 1447 1449 1452 1454 1462 1466 1472 1476 1480 1484 1489 1493 1496 1499 1502 1505 1508 1511 1513 1513 1514 1516 1516 1517 1518 1519 1519 1519 1518 1518 1518 1517
1447 1450 1453 1452 1447 1448 1449 1450 1447 1445 1444 1446 1448 1454 1458 1459 1463 1469 1474 1479 1483 1487 1490 1494 1497 1499 1502 1505 1508 1510 1511 1512 1513 1514 1515 1516 1517 1518 1517 1517 1517 1516 1516 1516